Location: Spring Creek
(38.2870°N, 100.2160°W)
Time: 08:40:39
(UTC+00:00)

FENGYUN 3A - Pass Details

Date: 08 May 2021
Orbit: 824 x 836 km, 98.5° (Epoch: 22 June)

Event Time Altitude Azimuth Distance (km) Brightness Sun altitude
Rises 10:44:52 0° 14° (NNE) 3,367 7.6 -9.8°
Reaches altitude 10° 10:47:13 10° 15° (NNE) 2,430 6.8 -9.4°
Maximum altitude 10:52:37 81° 103° (ESE) 838 3.8 -8.5°
Drops below altitude 10° 10:57:59 10° 191° (S) 2,417 5.7 -7.6°
Sets 11:00:19 0° 192° (SSW) 3,347 6.4 -7.2°
